User: anonymous   Login
Location: Unspecified
(0.0000°N, 0.0000°E)
Time: 18:26:01
(UTC+00:00)
Language:

DIAMOND GREEN - Orbit

View from above orbital plane
View from above orbital plane
View from above satellite
View from above satellite

Ground track
Ground track

The orbit data is extracted from the following two-line orbital elements,

1 42785U 17036W   18048.89249415 +.00001111 +00000-0 +52818-4 0  9998
2 42785 097.4178 110.5150 0013741 130.6245 229.6188 15.21193409036442
Epoch (UTC): 17 February 2018 21:25:11
Eccentricity: 0.0013741
inclination: 97.4178°
perigee height: 493 km
apogee height: 512 km
right ascension of ascending node: 110.5150°
argument of perigee: 130.6245°
revolutions per day: 15.21193409
mean anomaly at epoch: 229.6188°
orbit number at epoch: 3644

The dashed part of the orbit path shows where the satellite is in the earth's shadow,  

DLR